Theta_e
321 323 324 327 327 329 332 333 330 328 327 322 321 321 318 322 322 320 319 318 319 320 322 322 322 323 324 323 323 324 324 326 327 328 330 325 315 316 319 318 322 321 323 325 326 326 322 325 326 326 328 328 329 330 330 331 332 332 333 333 334 333 334 333 334 335 335 336 336 336 336 337 337 337 336 336 336 335 334 333 334 334 335 336 336 337 337 338 338 338 339 339 338 337 336 336 336
327 328 328 329 328 332 336 333 329 325 324 319 320 320 320 322 320 318 319 319 321 321 322 321 321 323 323 323 322 323 324 322 322 324 322 316 314 318 319 318 320 320 322 324 326 325 322 323 325 326 326 327 328 328 329 329 330 330 331 332 332 332 332 332 332 332 333 333 333 333 334 334 334 334 333 332 332 332 331 331 330 330 331 332 333 333 334 335 335 336 337 337 336 335 335 335 334
328 329 329 329 330 332 335 332 327 322 320 318 318 321 323 321 319 320 321 321 322 321 322 321 321 321 322 323 321 322 326 321 318 318 315 314 315 317 319 318 319 320 321 323 325 324 322 322 324 325 325 326 325 325 326 326 326 327 328 328 329 330 329 330 330 330 330 330 330 330 330 330 330 330 329 328 328 328 328 328 328 327 327 327 328 328 329 330 331 333 334 335 334 333 333 333 333
325 329 330 330 334 332 333 332 328 322 319 318 316 322 323 321 322 322 322 321 321 321 321 320 320 319 320 323 320 321 324 320 318 317 315 315 315 317 319 317 317 318 320 322 323 322 320 321 322 323 324 323 321 321 321 321 322 322 323 324 325 325 325 326 326 326 326 326 326 326 326 326 326 325 324 323 323 323 323 322 322 322 322 322 322 323 323 324 325 327 328 330 330 331 331 331 331
324 329 327 330 336 333 331 331 329 325 323 320 316 322 322 321 324 322 321 320 320 320 320 319 319 318 319 320 320 322 322 320 319 317 315 313 314 317 317 314 315 317 318 321 321 320 319 320 320 320 321 320 319 319 318 318 318 319 319 319 320 320 320 320 321 321 321 321 321 320 320 320 318 317 316 315 315 314 314 313 313 313 313 314 314 315 316 317 318 319 320 321 322 323 324 325 325
325 328 327 328 333 329 330 328 325 324 325 325 319 321 320 321 323 321 320 319 319 319 319 319 319 319 319 318 318 320 320 319 318 316 314 311 312 315 314 312 313 315 317 320 321 319 318 319 319 318 318 318 317 316 316 316 316 316 315 315 316 316 316 315 315 315 314 313 313 312 311 310 309 307 306 306 305 305 305 305 305 305 304 305 305 306 307 308 309 310 311 312 313 314 314 316 317
326 328 328 329 329 326 327 325 323 322 323 325 322 321 320 322 323 321 320 319 318 318 318 319 319 319 319 317 317 316 316 317 317 315 314 311 311 313 311 310 312 314 316 318 319 318 317 318 317 317 316 315 315 314 313 312 312 311 311 310 310 309 309 308 307 306 305 304 304 303 302 302 301 301 300 300 300 300 300 300 300 300 300 300 300 300 300 301 301 302 303 303 304 304 306 307 308
325 328 329 329 330 327 325 322 322 322 322 323 321 322 322 322 322 321 320 319 318 318 318 319 318 319 319 318 319 316 313 315 315 314 314 311 311 311 308 309 311 312 315 316 316 316 315 316 316 315 314 313 312 311 310 308 306 305 304 303 302 302 301 301 300 300 299 299 299 299 298 298 298 298 298 298 298 298 298 298 298 298 298 298 298 298 298 298 298 299 299 299 299 299 300 300 301
324 327 328 327 328 327 325 324 322 322 322 321 320 321 321 322 322 321 320 319 319 318 317 319 318 318 318 319 319 316 313 313 313 312 312 311 310 308 306 307 309 310 312 313 313 314 314 314 313 313 312 312 312 311 308 306 304 302 301 300 299 299 298 298 298 298 298 297 297 297 297 297 297 297 297 297 297 297 297 297 297 297 297 297 297 297 297 297 297 297 297 297 298 298 298 298 298
325 326 327 326 325 323 322 323 324 324 321 320 319 319 321 321 321 320 320 319 319 319 318 319 318 318 318 318 320 316 314 312 311 310 309 310 309 306 304 305 307 308 310 311 311 311 312 311 310 310 311 311 311 309 306 304 302 300 299 298 298 298 297 297 297 297 297 297 297 296 297 297 297 297 297 297 297 297 297 297 297 297 297 297 297 297 297 297 297 297 297 297 297 297 297 297 297
327 325 325 325 323 320 319 319 323 325 322 320 320 319 320 321 320 320 320 319 319 319 319 318 318 318 317 318 320 315 312 310 310 309 308 308 306 304 304 304 305 306 306 308 309 308 309 307 305 306 307 307 307 305 303 302 300 298 297 297 297 297 296 296 296 296 296 296 296 296 296 296 296 296 296 296 296 296 297 297 296 296 297 297 297 297 297 297 297 297 297 297 297 297 297 297 297
328 328 326 323 320 319 320 321 323 325 323 322 321 318 320 320 319 319 320 320 319 319 319 318 318 318 317 318 319 313 310 309 309 308 307 307 305 304 304 303 304 304 304 305 305 304 304 303 301 302 302 302 302 301 300 299 298 297 296 296 296 296 296 296 296 296 296 296 296 296 296 296 296 296 296 296 296 296 296 296 296 296 296 296 296 296 296 296 296 296 297 297 297 297 297 297 297
327 329 327 324 323 322 323 323 325 326 324 322 320 318 319 319 319 319 320 320 319 319 318 317 317 317 317 318 315 311 310 309 309 307 306 305 304 303 303 303 302 303 302 301 302 301 301 300 299 299 299 299 298 298 298 297 297 296 296 296 296 296 296 296 296 296 296 296 296 296 296 296 296 295 295 295 295 295 295 295 295 295 295 295 295 295 295 295 295 296 296 296 296 296 296 296 297
326 326 326 326 326 324 324 324 325 323 322 321 319 318 319 318 319 319 319 320 319 318 318 317 317 317 317 318 316 312 311 310 309 307 305 304 303 302 302 302 301 301 300 299 300 299 299 298 298 297 297 297 297 296 296 296 296 296 296 296 296 296 296 296 296 296 295 295 295 295 295 295 295 295 295 295 294 294 294 294 294 294 294 294 294 294 294 295 295 295 295 295 295 295 295 296 296
326 326 325 325 324 322 324 325 324 323 321 321 318 317 318 318 319 319 319 319 318 317 317 317 316 317 316 317 318 314 311 310 308 306 305 303 303 302 302 301 300 300 298 299 299 298 299 299 297 296 296 296 296 296 296 296 296 296 296 296 296 296 296 295 295 295 295 295 295 295 295 295 294 294 294 294 294 294 294 293 294 293 293 294 294 294 294 294 294 294 294 294 294 295 295 295 295
323 325 325 323 322 321 323 326 325 322 321 319 317 317 318 317 318 318 316 316 317 316 316 317 316 316 315 315 316 313 311 309 307 306 304 303 303 302 302 301 300 298 298 300 299 298 298 298 298 296 296 296 296 296 295 296 296 296 296 295 296 295 295 295 295 295 295 294 295 294 295 295 293 293 294 293 293 293 293 293 293 293 293 293 293 293 293 293 293 293 293 293 294 294 294 294 295
322 324 325 323 322 321 323 326 323 321 321 318 316 317 318 317 317 315 314 314 315 316 316 316 315 315 314 313 312 311 309 307 306 305 304 303 303 302 302 302 300 299 298 299 299 298 298 298 297 296 296 296 296 296 295 295 295 295 296 295 295 295 295 295 294 294 294 294 294 294 295 296 294 293 293 293 294 293 293 293 293 293 293 293 293 293 293 293 293 293 293 293 294 294 293 294 294
323 324 324 322 324 323 323 323 321 320 321 318 316 317 317 317 316 314 314 314 315 315 316 315 315 315 312 310 310 309 307 306 305 304 304 303 303 303 303 302 301 301 299 299 299 299 298 298 297 297 296 296 296 296 295 295 295 295 295 295 295 295 295 294 294 294 294 294 295 294 294 295 294 293 294 294 294 294 294 293 293 293 293 292 292 292 292 292 292 292 292 292 293 293 293 293 293
324 327 325 324 325 323 321 320 319 319 319 318 318 317 316 317 317 315 315 315 315 315 316 315 315 315 311 308 309 307 306 305 304 304 304 304 304 303 303 302 301 301 300 299 299 299 298 298 298 297 297 296 296 295 295 295 295 295 295 295 295 295 294 294 294 294 294 294 295 294 294 295 295 294 294 295 294 294 294 294 293 293 292 292 292 292 292 292 292 292 292 292 292 292 292 292 293
322 324 324 325 323 321 320 319 319 318 318 318 318 317 316 317 316 314 314 315 316 315 316 316 315 315 312 309 308 306 305 305 304 305 304 304 304 304 304 303 301 301 301 300 299 299 298 298 298 298 297 295 295 295 295 295 295 295 295 295 295 295 294 294 294 294 294 295 294 294 294 295 295 295 295 295 294 294 294 293 293 292 292 292 292 292 291 291 292 291 291 291 291 291 292 291 292
322 322 322 323 320 320 319 318 318 317 317 316 317 317 316 316 316 314 314 315 315 315 315 316 315 315 314 310 308 306 305 305 304 305 305 304 305 304 304 303 302 302 302 301 300 299 299 298 298 298 297 296 295 295 295 295 295 295 295 295 295 295 295 295 295 294 294 295 294 294 295 295 295 295 295 295 295 294 294 293 293 292 292 291 291 291 291 291 291 291 290 291 291 291 291 291 292
321 321 321 320 319 319 318 317 317 316 315 315 316 317 316 316 316 314 315 315 316 316 316 317 316 316 315 311 308 307 305 305 305 305 305 305 305 305 304 304 303 302 302 302 301 300 299 299 298 298 298 296 295 295 295 295 295 295 295 295 295 295 294 295 295 295 295 294 294 294 295 295 295 295 295 295 295 294 294 293 292 292 291 291 291 290 290 290 290 290 290 290 290 290 290 291 291
319 319 319 319 318 318 317 317 317 315 314 315 315 316 316 316 316 315 315 314 315 316 317 316 316 316 316 312 308 308 306 306 305 305 305 305 305 305 304 304 303 303 302 302 301 300 299 299 298 298 298 296 295 295 295 296 295 295 295 295 295 294 294 294 295 295 295 295 295 295 294 294 295 295 295 295 294 294 294 293 293 292 291 291 290 290 290 289 289 289 290 290 290 290 290 290 291
318 318 318 318 318 318 317 317 316 314 314 315 315 314 315 316 315 315 315 314 314 316 316 316 315 314 315 313 309 309 307 307 306 306 306 306 305 305 305 304 303 303 302 302 301 300 299 299 299 298 298 296 295 296 295 296 295 296 296 295 295 295 294 294 295 295 295 295 295 294 294 294 294 294 294 294 294 294 293 292 292 291 291 291 290 290 290 289 289 289 289 290 289 289 290 290 290
317 317 317 317 318 318 317 317 315 314 314 315 314 314 314 315 315 315 315 315 315 315 315 315 315 314 315 313 310 310 309 308 307 307 306 306 306 306 305 304 303 303 302 302 301 300 300 299 299 298 297 296 295 296 296 295 295 296 296 294 295 295 294 294 295 295 295 295 294 294 294 294 294 294 294 294 293 293 292 292 291 291 290 290 290 290 290 289 289 289 289 289 289 289 290 290 290
317 317 317 317 318 318 317 317 315 314 314 314 314 314 314 314 315 315 314 314 315 315 316 316 315 314 315 314 311 311 310 309 308 307 307 306 307 306 306 305 304 303 302 302 301 301 300 299 299 298 297 296 295 296 296 295 295 296 295 294 294 294 294 294 294 294 295 295 294 294 294 294 294 293 293 293 292 292 292 291 291 291 290 290 290 290 290 289 289 289 289 289 289 289 290 290 290
316 316 316 316 316 316 317 317 316 315 314 314 314 314 314 314 314 315 315 315 315 315 315 315 315 314 314 313 312 311 311 310 309 308 307 307 307 306 306 305 304 303 302 302 301 300 300 299 299 298 297 297 296 295 296 296 296 295 294 294 294 293 294 294 293 294 294 294 294 293 294 293 293 293 292 292 292 292 292 291 291 291 291 291 290 289 289 289 288 289 289 289 289 289 290 290 291
316 315 315 315 315 316 316 316 316 316 315 314 314 314 314 315 315 314 315 316 316 316 315 315 315 314 313 313 313 313 312 310 310 309 307 307 307 306 306 306 305 303 302 302 301 300 299 299 299 298 297 297 296 295 296 296 296 295 294 294 294 293 293 293 293 293 293 293 293 293 293 293 293 293 292 292 292 292 292 291 291 291 290 290 290 289 289 288 288 288 289 289 289 289 290 290 291
315 314 314 315 315 316 316 316 316 316 316 315 314 314 315 314 315 315 314 315 315 316 316 316 315 315 314 313 313 313 311 310 310 309 308 308 307 307 306 306 305 303 302 302 301 300 299 299 298 298 297 297 296 296 296 296 296 295 294 294 294 293 293 293 292 293 293 293 292 292 293 292 293 292 291 291 291 291 291 291 291 290 290 290 289 289 288 288 287 288 289 289 288 289 289 290 290
315 315 315 316 316 316 317 316 317 316 315 315 314 315 316 315 315 315 315 315 315 315 315 316 316 315 314 313 312 312 312 311 310 309 309 309 308 307 307 306 306 304 303 302 301 300 299 299 298 297 297 297 296 296 296 296 296 295 294 294 294 293 293 293 293 292 292 292 292 292 292 292 292 292 291 291 291 291 290 290 290 290 290 289 289 288 288 287 287 289 289 288 288 288 289 289 289
315 316 317 317 317 317 318 318 318 316 315 314 315 315 315 315 316 315 315 316 315 315 315 315 316 315 314 313 313 312 312 311 309 310 310 310 309 308 307 306 306 304 303 302 301 300 299 299 298 297 297 297 296 296 296 296 296 296 295 294 294 293 292 292 293 292 292 292 292 292 291 292 292 291 290 290 290 290 290 290 290 289 289 289 288 288 287 287 287 288 288 288 288 288 288 288 288
316 317 318 320 318 318 319 319 318 316 314 313 315 315 315 315 316 317 316 316 315 314 314 314 314 314 314 313 312 312 312 310 309 309 310 310 310 308 307 307 305 304 303 302 301 300 299 298 298 297 297 297 296 296 296 296 296 295 294 294 294 293 292 292 292 292 291 291 291 292 291 291 292 291 290 290 290 290 290 290 289 289 289 288 288 287 287 287 287 287 288 288 288 288 287 287 287
319 317 318 320 319 318 319 318 316 317 314 313 314 316 316 315 317 317 316 316 315 314 314 314 314 314 314 314 313 312 312 311 310 309 309 310 309 309 308 306 306 305 303 302 301 300 299 298 297 297 297 297 296 296 296 296 295 295 294 294 293 292 292 292 292 292 291 291 291 292 292 291 291 291 290 290 290 290 290 289 289 289 288 288 288 287 287 286 286 287 288 288 288 287 286 286 287
320 320 318 319 320 318 319 317 316 316 315 314 314 314 315 316 316 316 316 315 315 314 314 314 314 314 314 315 314 313 312 312 311 309 309 309 309 309 308 306 305 304 303 302 301 300 299 298 298 297 297 297 296 296 296 295 295 294 294 294 293 292 292 292 292 292 291 291 291 291 292 292 291 291 290 290 290 290 289 289 289 289 288 288 288 287 287 286 286 287 288 287 286 286 286 286 286
318 319 316 317 318 317 318 318 316 316 316 315 314 314 313 314 315 315 316 316 315 314 315 315 315 314 314 315 315 314 312 312 311 309 308 309 309 309 307 306 305 304 303 302 301 300 299 298 298 297 297 296 296 296 296 295 295 294 294 293 293 292 292 292 292 291 291 291 290 291 292 292 291 290 290 289 289 289 289 288 288 288 288 288 287 287 287 286 286 287 287 286 285 286 286 286 287
317 318 317 316 316 316 318 318 316 315 315 315 314 314 314 314 315 315 315 316 315 315 315 315 315 314 315 315 315 315 314 313 310 309 309 308 308 308 307 306 305 304 303 302 301 300 299 298 298 297 297 296 296 295 295 295 294 294 293 293 292 292 292 292 292 291 291 290 290 291 291 291 290 290 289 289 289 289 288 288 288 288 288 287 287 287 286 286 286 286 285 285 285 286 286 286 287
318 319 318 318 317 316 317 318 317 316 316 316 316 315 315 315 316 316 316 317 317 316 315 315 315 315 315 316 316 316 315 315 312 309 308 308 308 307 306 305 304 303 302 301 301 300 299 298 298 297 296 296 296 295 295 295 294 293 293 293 292 292 291 291 291 291 290 290 290 291 291 290 290 289 289 289 289 288 288 288 288 287 287 287 287 286 286 286 285 285 285 285 286 286 286 286 286
319 319 319 318 318 317 316 317 316 315 317 317 317 317 316 316 316 316 317 317 316 317 316 316 316 316 316 316 317 316 316 319 317 311 308 307 307 307 305 304 304 302 301 301 300 300 299 298 298 297 296 296 296 295 295 294 294 294 293 293 292 291 291 291 291 290 290 290 290 290 290 290 289 289 289 289 288 288 288 287 287 287 287 287 286 286 286 285 285 285 286 286 286 286 286 285 286
320 320 320 318 318 317 317 319 315 313 316 318 317 317 316 316 317 316 316 316 316 316 316 316 316 316 316 316 317 317 319 322 319 313 309 306 306 306 304 303 303 302 301 300 300 300 299 298 298 297 297 296 296 295 295 294 294 293 293 293 292 292 291 291 291 290 290 290 290 290 290 289 289 288 288 288 288 288 288 287 287 287 287 286 286 286 285 285 285 285 285 286 286 286 285 285 286
320 319 319 317 317 318 318 318 315 312 315 317 317 316 316 315 316 316 316 316 316 316 317 317 318 318 317 317 317 319 321 321 316 312 310 307 304 304 303 302 302 301 301 300 300 299 299 298 298 297 297 296 296 295 295 294 294 293 293 293 292 292 292 291 291 291 290 290 289 289 289 289 288 288 288 288 288 288 287 287 287 287 286 286 286 285 285 285 284 284 285 285 285 285 285 285 285
320 321 319 316 318 318 319 320 319 316 315 316 317 317 316 317 317 317 316 316 316 316 316 317 318 318 318 318 320 322 324 320 315 312 310 308 305 303 302 302 301 301 300 300 299 299 299 298 298 297 297 296 296 295 295 294 294 293 293 293 292 292 292 291 291 291 290 290 290 289 289 288 288 288 288 288 288 288 287 287 287 286 286 285 285 285 284 284 284 284 284 285 285 285 285 285 285
317 322 321 318 318 318 320 322 324 325 323 318 318 318 317 319 320 319 319 319 318 317 316 316 317 317 317 318 320 323 325 320 314 312 310 308 305 302 301 301 300 300 300 300 299 299 299 298 298 297 297 296 296 295 295 294 293 293 293 293 293 292 292 291 291 291 291 290 290 290 289 288 288 288 287 287 287 287 287 287 286 286 286 285 285 284 284 284 284 284 284 284 284 284 285 285 284
315 324 328 322 321 323 324 324 325 329 327 321 320 320 319 318 317 318 320 322 321 318 317 317 317 317 317 317 319 322 323 320 315 313 310 307 305 302 301 301 300 300 300 300 299 298 298 298 298 297 297 296 296 295 294 294 293 293 293 293 292 292 291 291 291 291 291 291 290 289 289 288 288 287 287 287 287 287 286 286 286 286 285 285 284 284 283 283 283 283 283 283 284 284 284 284 284
319 329 331 324 322 324 325 325 326 327 324 321 322 321 320 319 316 318 320 320 320 318 317 318 317 316 316 316 321 323 322 319 317 314 311 307 305 303 302 301 300 300 300 299 299 298 298 298 297 297 297 296 296 295 294 294 294 293 293 293 292 292 292 291 291 291 290 290 289 289 288 288 288 287 287 287 287 286 286 286 286 285 285 284 284 283 283 283 283 283 283 283 283 283 283 283 283
322 326 325 323 323 322 322 322 324 324 320 321 324 322 321 320 315 318 320 317 318 317 316 317 316 316 315 313 321 325 322 319 317 315 312 308 305 303 302 301 301 300 300 299 299 298 298 297 297 297 297 296 296 295 294 294 293 293 293 292 292 292 291 291 291 290 290 290 289 289 288 288 288 287 287 287 286 286 286 285 285 285 285 284 284 283 283 282 282 282 282 283 282 282 282 283 283
322 323 321 322 323 320 319 321 320 321 320 320 324 323 320 319 315 316 319 317 317 316 315 316 314 315 315 314 322 327 321 318 318 315 313 309 305 303 303 302 301 300 300 299 299 298 297 297 297 297 296 296 296 295 294 294 293 293 293 292 292 291 291 291 291 290 290 290 290 289 289 288 288 287 287 286 286 286 285 285 285 285 284 284 283 283 282 282 282 282 282 282 282 282 282 282 282
320 321 319 321 322 319 319 319 318 321 320 319 322 322 318 319 318 317 318 317 317 316 314 314 314 314 315 315 324 328 321 318 319 316 314 310 305 304 303 302 301 300 300 299 299 298 297 297 297 296 296 296 296 295 294 294 293 293 292 292 291 291 291 291 291 290 290 290 290 289 289 288 287 287 286 286 286 285 285 285 285 284 284 283 283 282 282 282 282 282 282 282 282 282 282 282 282
319 319 317 320 323 322 320 318 318 321 321 319 322 322 319 319 319 317 318 317 316 316 314 314 314 315 316 316 321 326 322 319 319 317 316 312 307 305 303 302 301 300 300 299 298 298 297 297 297 296 296 296 296 295 294 294 293 293 292 292 292 291 291 291 291 291 290 290 289 289 288 287 287 286 286 286 286 285 285 285 284 284 283 283 282 282 281 281 281 281 281 281 281 281 281 281 281
320 320 318 321 323 322 323 322 323 323 320 321 324 322 319 318 317 316 317 316 316 315 314 314 315 316 319 320 321 325 323 319 318 317 316 313 309 307 303 301 301 300 299 299 298 298 297 297 297 296 296 296 295 295 294 294 293 293 292 292 291 291 291 291 291 291 290 289 289 288 287 287 286 286 286 286 285 285 285 284 284 284 283 283 282 281 281 281 281 281 281 281 280 280 280 281 281
317 319 321 324 323 321 323 325 326 326 321 321 322 323 324 319 317 318 317 316 316 316 315 316 318 319 321 325 327 327 324 320 318 317 315 313 310 308 304 301 300 300 299 299 298 298 297 297 296 296 296 295 295 295 294 294 293 293 292 292 291 291 291 291 291 290 290 289 289 288 287 287 287 286 286 286 285 285 285 284 284 283 283 282 281 281 281 281 281 280 280 280 280 280 280 280 280
313 317 319 322 324 320 320 322 323 323 323 321 318 322 325 320 319 321 317 315 316 315 316 318 322 322 323 329 331 327 323 320 318 317 315 313 311 307 303 301 301 300 299 299 298 298 297 297 296 296 296 295 295 295 294 294 293 293 292 292 291 291 291 291 290 290 290 289 289 288 287 287 287 286 286 286 285 285 284 284 283 283 282 281 281 280 280 280 280 280 280 280 280 280 280 280 280
316 317 318 320 322 319 318 321 320 319 322 321 318 322 321 315 316 319 316 316 316 314 315 317 321 321 323 329 330 326 322 319 319 318 315 314 311 306 302 302 301 300 300 299 298 298 297 297 296 296 296 295 295 294 294 293 293 292 292 291 291 291 291 290 290 290 289 289 288 288 287 287 287 286 286 285 285 284 284 283 283 282 281 281 280 280 280 280 280 279 279 279 279 279 279 279 279
317 319 321 320 322 321 320 323 320 318 320 318 317 319 317 313 315 317 315 316 316 315 315 315 318 318 319 325 326 324 322 320 319 318 316 314 312 307 303 302 302 301 300 299 298 298 298 297 297 296 296 295 295 294 294 293 293 292 292 291 291 290 290 290 290 289 289 288 288 288 287 287 286 286 285 285 284 284 283 283 282 282 281 281 280 280 280 280 279 279 279 279 279 279 279 279 279
319 322 322 319 322 323 320 321 322 321 320 318 315 316 314 313 316 318 316 315 314 315 314 314 317 317 316 320 323 322 322 320 319 318 316 314 312 309 305 303 302 301 300 300 299 299 298 297 297 296 296 295 295 295 294 293 293 292 291 291 291 290 290 290 289 289 289 288 288 287 287 286 286 285 285 284 284 283 283 283 282 282 281 281 281 280 280 279 279 278 278 278 278 278 278 278 278
318 319 318 318 322 323 320 320 321 321 319 316 315 314 313 313 315 317 317 315 314 314 314 314 315 314 315 318 320 322 323 322 320 318 317 314 313 310 306 303 303 302 301 300 299 299 298 298 297 296 296 295 295 294 294 293 293 292 291 291 290 290 289 289 289 288 288 287 287 287 286 286 285 285 285 284 284 283 283 283 282 282 282 281 280 280 279 278 278 278 278 278 278 278 278 278 278
314 314 315 316 317 321 322 320 320 319 316 315 315 314 314 315 315 317 318 316 314 314 314 314 314 313 315 317 319 323 325 325 322 319 316 314 313 310 305 304 304 303 302 301 300 299 298 298 297 296 296 295 295 294 294 293 292 292 291 290 290 289 289 288 288 288 287 287 286 286 286 285 285 285 284 284 283 283 283 283 282 282 281 280 280 279 278 278 278 278 278 278 277 277 277 277 277
315 314 315 314 313 315 318 319 319 318 316 316 317 316 316 317 318 319 318 315 314 315 314 314 315 313 314 317 320 323 326 326 324 321 317 315 314 310 305 305 305 303 303 302 300 299 298 298 297 297 296 295 295 294 294 293 292 291 291 290 290 289 288 288 287 287 287 286 286 285 285 285 284 284 284 284 283 283 283 282 282 281 280 280 279 278 278 278 277 277 277 277 277 277 276 276 276
316 315 314 314 314 315 316 317 319 318 317 316 317 317 316 316 319 319 317 315 315 316 316 315 315 314 315 318 322 323 325 325 325 324 320 317 316 312 306 304 304 303 302 302 300 299 298 298 297 297 296 295 295 294 293 293 292 291 290 290 289 288 288 287 287 286 286 285 285 285 285 284 284 284 283 283 283 283 282 282 281 280 279 279 278 278 278 277 277 277 277 276 276 276 276 276 276
Wind_Speed
5 5 4 5 5 7 6 3 1 2 2 4 6 5 1 4 4 3 3 4 1 2 4 2 4 4 3 3 1 5 6 4 2 1 1 3 10 10 10 10 9 11 11 10 7 4 6 10 10 9 9 8 8 7 6 6 6 5 5 5 6 6 6 5 4 5 4 4 4 6 6 6 7 6 6 5 4 5 5 5 5 5 5 6 7 8 9 9 10 11 11 12 10 8 9 9 8
4 4 4 4 5 4 3 1 2 3 3 4 5 3 3 4 2 3 4 5 2 4 5 4 6 4 3 3 2 3 5 6 4 3 3 9 12 10 12 11 9 11 12 10 8 4 6 11 11 10 9 9 9 9 9 8 7 5 4 5 6 7 6 6 5 3 3 2 1 2 2 2 3 2 2 3 3 5 5 6 6 6 5 5 6 6 7 7 7 7 8 9 9 7 9 10 9
2 2 5 5 4 3 2 1 2 3 3 4 2 1 3 3 3 4 5 7 6 6 6 5 4 4 3 2 2 2 2 4 6 5 5 12 10 10 13 12 10 10 13 10 8 6 7 11 11 10 10 9 8 7 7 6 4 4 3 3 4 5 5 5 5 3 2 2 1 1 1 1 2 2 3 4 4 5 6 7 7 7 7 7 7 7 7 7 7 7 6 7 8 8 10 11 11
2 1 5 5 3 3 2 1 2 3 4 4 2 1 1 4 7 8 8 7 6 6 4 2 1 1 2 1 2 3 4 3 6 7 6 10 9 13 15 13 10 9 13 9 6 6 6 9 9 9 9 8 7 6 5 4 4 4 4 3 4 3 3 3 2 2 1 0 1 1 2 3 3 4 4 5 5 6 6 7 8 8 8 8 8 8 9 8 8 8 8 8 9 11 11 12 12
2 1 5 5 1 1 1 2 3 4 5 5 1 1 2 6 9 8 7 6 5 4 3 1 1 1 1 0 2 1 3 3 7 8 8 9 10 16 16 13 10 10 12 8 4 4 6 7 7 7 6 6 6 6 5 5 5 4 5 4 4 4 4 3 3 2 1 1 1 1 3 3 4 5 5 6 6 6 7 7 8 8 8 8 8 9 9 9 10 10 10 10 11 12 13 13 14
2 2 4 3 1 1 1 3 3 5 5 5 2 2 3 7 9 8 7 6 5 6 3 1 2 1 1 2 3 3 2 4 7 8 11 13 13 16 15 14 11 11 12 9 8 6 8 8 7 6 5 6 5 6 6 5 6 5 5 5 5 4 4 4 3 3 2 2 2 2 3 4 5 6 6 6 7 7 7 8 8 9 9 9 9 9 9 9 9 10 11 11 12 13 13 14 14
4 2 3 2 2 1 1 4 4 6 3 3 2 3 5 9 8 8 7 3 3 3 2 1 3 0 1 2 3 3 3 5 8 8 12 16 15 16 15 13 12 12 11 10 10 8 10 9 8 8 7 7 7 7 7 6 6 6 6 6 5 5 5 4 4 3 3 3 3 3 4 4 5 5 6 6 7 7 7 8 8 9 9 9 10 10 10 10 11 11 11 12 12 13 13 14 14
3 1 1 1 2 1 2 5 5 6 3 1 2 4 5 9 7 7 6 3 2 3 2 1 3 0 1 2 0 2 4 6 10 11 13 18 18 17 14 12 13 13 11 10 11 9 10 11 10 10 9 9 9 8 8 8 7 7 7 6 6 5 5 4 4 4 4 4 4 4 4 5 5 5 6 6 7 7 7 8 8 9 9 10 10 10 10 11 11 12 13 13 14 14 14 14 14
3 2 1 1 2 2 4 5 6 8 4 2 5 2 3 7 6 6 6 3 3 4 6 6 5 3 1 1 0 2 6 9 13 13 15 19 19 17 14 12 13 14 12 11 10 11 13 13 13 12 11 10 10 9 9 8 7 7 6 6 5 5 4 4 4 4 4 4 5 5 6 6 6 7 7 7 7 8 8 9 9 10 10 10 11 11 11 11 11 12 13 13 13 14 14 15 15
3 3 0 0 3 3 4 5 6 5 2 2 5 4 3 5 5 6 6 5 5 4 6 7 5 4 3 2 2 2 9 14 15 15 16 19 18 17 14 12 14 15 14 11 10 13 15 14 14 13 13 11 11 9 9 8 7 6 5 5 4 4 5 4 5 5 5 6 6 6 7 7 7 8 8 8 8 8 8 9 9 10 10 10 11 11 12 12 12 13 13 13 14 14 14 14 15
1 2 1 1 3 3 5 5 4 1 4 3 4 4 3 4 4 4 5 5 6 5 6 7 4 6 4 2 1 3 13 18 17 18 18 19 18 16 16 14 14 14 14 13 11 13 15 13 12 11 11 10 9 8 7 7 6 5 5 4 4 5 5 5 6 6 6 7 7 7 7 7 7 7 7 7 7 7 8 8 8 8 9 9 9 10 11 11 12 12 13 14 14 14 15 15 15
1 2 2 2 4 4 5 4 5 5 1 2 4 5 3 4 4 4 6 5 6 6 6 6 2 3 5 3 1 7 16 16 17 19 19 19 18 16 16 15 15 14 14 14 11 12 14 12 10 9 8 8 7 6 6 5 5 5 5 5 5 6 6 6 6 6 6 6 7 6 6 7 7 7 7 7 6 6 7 6 6 7 7 7 8 8 9 9 10 10 11 12 13 13 14 14 15
2 3 1 3 4 4 5 5 5 6 4 2 2 6 3 4 5 4 5 5 7 6 6 9 2 1 4 1 1 6 12 15 17 19 20 19 18 15 14 15 15 14 15 14 12 12 12 13 12 10 8 8 7 6 6 5 5 5 5 6 6 7 7 7 6 6 6 6 6 6 6 6 6 6 6 6 6 6 7 6 6 7 7 8 8 8 9 9 9 10 10 10 11 12 12 13 13
2 3 1 3 4 5 5 5 4 5 3 2 4 5 3 3 3 4 4 5 6 3 4 10 4 1 3 1 2 4 10 18 19 20 20 18 17 16 13 14 15 14 14 14 13 12 11 12 12 11 10 9 8 8 7 6 6 6 6 6 7 7 7 7 7 7 6 7 6 6 7 7 7 8 8 8 8 8 9 9 9 10 10 11 11 11 12 12 12 12 12 12 12 12 12 11 11
1 3 1 3 4 5 4 5 4 4 2 3 2 3 3 0 1 2 3 2 2 1 2 6 4 3 2 3 3 4 15 22 21 21 20 17 17 17 14 15 15 15 15 13 13 13 12 12 11 12 11 10 10 9 8 8 8 8 7 7 7 7 6 7 7 7 7 7 7 7 8 9 10 9 10 10 10 11 12 12 12 13 13 13 13 13 14 14 15 15 15 15 14 14 14 13 12
1 2 1 2 4 5 3 4 2 3 1 4 3 3 4 0 2 1 1 1 0 1 0 2 3 2 1 1 1 9 23 25 22 22 20 18 17 16 14 15 15 15 16 15 15 15 15 14 13 13 12 11 11 10 10 9 9 9 8 8 7 6 6 6 7 7 7 8 8 8 9 10 11 11 11 11 12 12 13 13 13 13 13 13 13 13 15 15 15 16 17 17 16 16 17 16 16
0 1 2 3 4 5 3 2 0 1 1 3 3 3 4 2 2 1 1 1 2 3 2 3 4 2 1 3 7 18 26 24 23 23 20 19 18 17 15 15 15 16 18 18 17 17 17 17 15 15 14 14 13 11 11 10 10 9 8 7 7 6 6 7 7 7 8 8 8 10 10 8 10 11 11 11 11 12 13 13 13 13 14 15 14 15 17 17 16 17 18 18 18 18 18 17 17
1 2 3 4 5 5 1 3 2 1 2 1 3 4 3 3 3 2 2 3 4 4 5 4 5 4 6 9 14 23 26 24 25 23 20 19 18 17 17 18 18 18 20 19 18 19 19 18 17 17 17 16 14 12 12 11 10 9 8 7 6 6 6 6 6 7 7 8 9 9 8 7 9 10 10 11 12 12 13 13 14 15 16 16 16 16 18 18 17 18 18 18 18 18 18 17 17
3 3 3 5 4 3 1 3 3 3 4 3 1 5 4 3 5 4 1 5 6 7 7 5 7 5 8 11 17 23 24 25 25 23 21 20 20 18 18 19 20 19 21 22 20 20 20 19 19 18 18 17 15 14 13 12 12 10 9 8 7 6 6 6 6 7 7 8 9 8 7 7 8 9 10 11 12 13 14 14 15 16 16 16 17 17 17 18 17 17 18 18 18 18 18 18 18
4 3 3 6 3 4 4 3 3 3 4 5 4 3 4 5 3 4 3 5 7 9 9 7 10 10 9 10 17 22 22 23 24 23 21 21 21 20 20 21 23 22 23 24 22 21 21 20 20 19 19 18 16 15 14 13 12 11 10 9 8 7 6 6 5 6 6 7 7 7 6 6 7 8 9 10 11 12 13 14 14 15 15 16 16 16 17 18 18 18 18 18 19 19 19 19 18
3 4 4 6 1 2 3 4 4 4 4 4 6 2 3 5 2 4 4 4 7 9 10 11 12 13 11 11 15 20 20 20 22 22 21 21 22 21 21 23 24 23 22 23 24 23 22 22 21 20 20 19 17 17 16 14 13 12 11 10 9 8 7 6 6 5 5 5 5 5 5 5 6 7 8 9 10 11 12 13 13 14 15 15 16 16 17 19 19 19 19 19 20 20 20 20 19
2 5 7 9 6 3 1 4 3 3 2 2 5 5 4 4 4 6 6 7 8 5 6 10 13 12 11 14 15 17 16 16 19 20 21 22 23 24 22 22 23 23 23 24 26 26 25 23 24 24 22 20 20 19 17 16 15 14 12 11 10 9 8 7 6 5 5 4 4 4 4 4 4 5 6 7 8 10 11 12 12 13 14 14 16 17 17 19 20 19 19 19 20 20 20 19 18
3 6 7 10 8 5 2 3 2 2 1 4 4 4 3 4 6 6 9 13 11 4 1 2 4 7 9 16 17 15 15 15 18 22 24 25 26 27 25 24 25 26 26 27 27 27 27 26 26 26 24 23 22 20 19 18 16 15 14 13 12 11 9 8 7 6 5 4 3 3 3 3 3 3 5 6 7 8 9 11 12 13 14 14 16 17 18 19 20 19 18 19 20 21 20 20 19
4 6 7 9 7 5 4 3 4 3 4 5 1 3 3 7 7 5 11 16 14 10 5 2 2 1 4 13 16 16 17 17 20 26 29 29 29 30 28 26 26 27 27 27 27 27 29 28 28 27 26 25 24 22 21 20 18 17 16 15 14 12 11 10 9 8 7 5 4 3 3 2 1 2 3 5 6 7 8 10 11 12 14 14 16 17 18 19 20 19 18 19 21 21 21 20 20
6 7 8 7 3 4 5 4 6 5 5 5 2 3 7 9 6 7 16 15 11 11 9 6 5 3 6 11 14 14 14 16 19 24 26 27 28 28 28 27 25 27 29 28 28 29 30 30 29 28 27 27 26 24 23 21 20 20 17 16 16 14 13 12 11 9 9 7 5 4 3 2 1 1 2 3 5 6 8 9 10 11 13 14 15 16 17 19 19 19 19 19 21 22 22 22 21
4 6 7 6 5 6 6 6 7 6 5 4 5 8 9 8 4 11 19 16 12 10 10 9 7 7 7 9 12 12 13 14 17 20 25 26 26 26 28 28 27 28 30 30 29 30 31 31 30 29 29 28 28 26 23 21 22 21 18 18 18 16 15 14 12 11 10 9 7 6 4 3 2 1 2 3 4 5 6 8 9 10 12 13 14 15 17 18 18 19 19 20 22 22 22 22 21
1 4 6 8 10 8 6 7 7 7 5 6 7 9 9 4 2 10 14 10 11 12 12 11 8 9 10 9 10 11 13 15 19 21 20 22 24 26 28 30 29 28 30 30 31 31 31 32 31 30 29 29 28 27 24 23 23 21 20 20 19 18 17 15 14 13 12 10 8 7 6 4 3 2 1 2 3 4 6 7 9 10 11 12 14 15 16 17 18 18 18 19 21 21 21 21 19
3 4 6 9 11 11 10 10 9 6 5 8 8 7 8 3 4 15 14 2 5 10 12 12 11 10 10 10 10 9 10 16 21 20 17 21 25 27 29 32 32 29 30 33 32 31 32 33 32 31 30 29 28 28 26 24 23 22 22 21 20 19 18 16 15 15 13 11 9 8 7 5 5 4 2 2 3 4 5 7 8 10 11 12 13 15 16 17 17 17 15 16 18 18 19 18 17
4 3 5 11 11 12 13 13 10 7 5 7 6 4 9 9 11 21 18 6 4 7 9 11 11 11 9 10 9 8 10 14 18 19 22 26 28 30 31 34 35 32 31 33 32 32 33 34 33 32 31 30 30 29 28 26 24 23 23 22 21 21 19 17 17 15 14 13 10 9 8 7 6 5 3 3 3 4 5 6 8 9 11 12 13 15 16 16 16 14 13 15 16 16 17 17 18
4 3 4 8 8 9 13 13 11 9 5 8 7 3 8 11 17 22 17 9 9 8 9 9 9 9 8 9 9 9 10 12 15 21 26 28 28 31 32 33 35 34 31 31 33 34 34 34 34 33 32 32 31 30 29 28 26 25 24 23 23 22 19 18 17 16 16 14 12 11 9 8 7 5 4 3 3 4 5 6 8 9 10 12 13 14 14 15 14 12 13 16 16 16 18 18 19
3 5 5 5 4 6 8 7 11 9 4 9 7 4 9 10 13 19 16 9 11 11 10 9 9 8 8 9 10 10 11 13 19 25 27 29 29 30 32 32 34 35 32 33 35 35 34 35 34 34 33 33 32 30 30 29 28 27 25 24 24 21 20 19 18 17 16 14 13 12 10 9 8 6 5 4 4 4 5 6 7 8 10 11 12 13 13 13 12 11 13 15 16 17 19 20 20
3 3 4 5 4 7 7 2 13 12 3 8 7 3 10 13 9 9 9 10 12 11 10 9 10 10 10 9 10 10 10 13 20 25 26 29 30 30 32 32 34 37 35 34 35 34 34 35 35 35 35 34 33 31 30 29 27 26 25 25 24 22 21 20 19 18 16 15 14 13 12 10 8 7 6 6 5 4 5 5 7 8 9 10 11 12 12 12 11 12 13 13 15 19 21 22 21
4 5 5 6 5 7 6 1 8 10 5 7 10 5 6 9 5 1 1 8 10 9 9 9 11 11 11 10 9 10 10 11 14 19 24 28 29 30 32 33 35 37 37 35 35 35 35 35 36 36 35 35 33 30 28 28 27 25 25 24 23 22 22 20 20 19 17 17 15 14 13 11 10 9 8 7 6 5 6 6 7 8 9 10 11 12 12 12 11 13 13 12 15 19 21 22 23
4 5 6 7 8 8 5 1 4 7 6 8 11 10 10 9 6 1 1 6 8 9 9 10 10 10 11 9 9 10 10 11 12 15 22 27 28 29 30 32 34 36 36 35 36 37 36 36 36 36 35 33 32 30 29 28 26 25 24 24 23 23 22 21 20 19 19 18 16 15 14 12 11 10 9 8 7 7 6 6 7 7 9 10 11 12 12 12 12 11 13 15 16 18 20 22 23
5 6 5 6 7 8 7 4 3 9 7 7 9 10 15 15 12 9 7 7 8 10 10 12 12 12 13 10 10 10 11 14 12 14 23 28 28 28 29 30 32 34 35 34 35 35 35 35 35 34 33 32 32 31 29 28 26 25 25 23 23 23 23 22 21 21 20 19 17 17 16 13 12 12 10 9 8 7 7 6 7 7 9 10 11 12 12 13 12 11 14 18 18 18 18 20 21
9 10 7 7 7 7 11 8 4 11 7 8 11 11 14 15 14 13 12 10 11 12 11 12 12 13 13 11 10 11 12 14 12 17 25 28 29 29 29 29 31 33 34 33 34 35 34 34 34 33 33 33 32 31 30 29 27 26 25 24 24 25 25 24 22 22 21 20 19 18 17 15 14 13 11 10 9 8 7 7 7 7 9 10 11 11 12 13 13 14 16 18 19 19 19 19 19
12 11 9 9 8 8 13 10 5 9 6 8 13 13 14 15 14 13 12 11 11 12 13 13 12 13 13 12 12 12 13 11 10 18 26 28 29 29 29 29 30 31 31 32 34 35 35 35 35 35 34 34 34 34 33 32 32 30 28 28 28 28 27 26 25 23 22 21 20 20 18 16 15 15 13 11 10 9 8 8 8 8 9 10 11 11 12 13 13 14 16 16 16 18 20 20 19
12 10 8 8 7 9 14 8 3 6 5 6 9 11 13 14 13 12 11 12 13 13 14 15 16 16 13 12 13 13 10 6 9 13 19 25 27 27 28 29 31 32 32 33 35 36 36 36 37 36 36 35 36 36 36 35 35 34 33 32 31 30 29 28 28 26 23 22 21 21 20 18 17 16 14 13 11 10 9 8 8 8 9 9 10 11 12 13 13 13 13 15 15 16 19 19 18
9 6 5 7 7 9 11 5 2 3 3 5 8 9 11 12 14 14 13 14 14 15 16 16 16 16 14 13 13 11 8 7 9 9 12 19 24 26 28 28 31 33 33 34 35 36 36 35 36 36 37 37 37 37 37 37 35 34 33 32 31 29 28 28 27 25 24 23 22 22 21 19 18 17 16 14 12 11 10 9 9 9 9 9 10 12 12 12 12 11 12 13 15 16 18 18 14
7 6 6 8 8 8 7 3 3 4 5 5 6 8 9 11 14 15 17 18 16 16 18 17 15 15 16 16 12 9 9 9 9 9 10 13 19 24 26 27 30 31 32 33 34 35 36 36 36 37 37 38 37 37 37 36 33 31 29 27 26 26 25 25 23 22 23 24 24 24 22 21 19 18 17 15 14 12 10 10 10 9 10 10 11 12 12 12 12 11 11 12 14 17 19 18 15
8 7 8 9 11 11 9 5 3 4 6 4 4 8 8 10 14 15 13 14 14 14 16 15 14 14 15 15 12 8 9 10 11 11 10 11 14 20 25 27 29 30 32 33 35 36 36 35 36 37 37 38 38 37 36 34 32 30 26 23 23 22 22 24 24 23 24 24 25 25 24 22 20 18 17 16 14 13 11 11 10 10 10 10 11 12 13 12 11 11 11 13 15 17 18 19 18
8 7 12 15 14 12 11 8 3 3 5 3 1 6 7 7 11 12 7 7 9 10 12 14 14 14 14 12 10 8 8 10 11 12 12 11 13 17 23 26 27 29 32 34 35 36 35 35 36 37 37 38 38 36 36 35 34 34 32 31 30 27 26 28 31 30 29 28 27 26 24 22 21 19 18 17 15 13 12 12 11 11 11 12 12 12 13 12 12 12 12 14 16 16 18 19 20
8 4 7 11 11 10 9 7 3 2 5 2 4 2 7 6 8 10 6 6 9 9 10 12 13 13 12 10 8 8 8 9 10 11 11 12 13 15 19 25 29 30 32 33 33 34 35 35 36 37 38 38 38 37 36 37 36 37 38 37 36 34 32 32 33 33 32 31 28 25 23 21 21 20 19 18 16 14 13 13 12 12 12 12 13 13 13 12 12 12 12 14 16 17 18 19 21
6 1 0 1 3 6 4 3 4 3 5 4 4 4 7 12 8 8 9 8 9 9 9 11 13 13 13 12 8 9 10 10 10 10 12 13 14 15 20 26 31 31 31 32 33 34 36 36 37 37 37 37 38 38 38 39 39 39 38 37 35 35 33 31 31 30 29 29 27 24 23 21 21 20 19 18 16 15 14 14 13 13 13 13 13 14 14 13 12 12 13 14 17 19 20 21 22
4 1 2 3 2 1 1 2 4 3 5 5 5 7 5 13 7 7 9 10 10 11 11 13 14 13 14 14 9 8 10 11 11 11 12 13 14 18 23 27 29 30 31 32 34 35 35 36 36 37 37 37 37 38 39 40 40 39 38 36 34 33 31 28 27 27 25 25 25 24 23 22 22 20 19 18 17 16 15 15 14 14 14 14 14 14 13 13 12 13 14 16 19 21 21 21 22
4 2 3 5 3 1 2 2 2 2 5 7 6 8 5 13 10 5 7 8 10 10 11 13 13 13 13 12 8 8 8 9 10 10 11 12 15 20 24 25 27 29 31 32 34 34 35 35 36 37 38 38 38 39 40 41 40 38 38 37 34 32 29 25 25 26 26 25 25 25 24 23 22 21 19 18 17 16 16 15 15 15 15 14 14 14 13 13 13 13 15 17 19 20 22 22 23
2 2 2 2 1 0 1 2 2 1 9 9 9 13 9 9 7 5 8 9 11 10 9 10 11 12 12 9 7 8 8 8 9 9 8 10 14 20 22 23 25 28 30 31 32 34 35 35 36 38 39 38 38 39 41 41 41 40 39 38 36 33 30 28 28 29 29 28 28 27 26 24 22 21 19 18 17 17 16 16 15 15 15 14 14 14 14 14 13 14 15 17 18 20 22 23 24
2 3 2 1 2 2 2 1 3 2 10 6 10 16 14 10 5 2 5 9 12 11 10 11 12 13 12 10 9 8 8 8 8 8 8 8 11 15 18 20 24 27 29 31 33 34 35 36 36 37 38 39 39 40 41 41 41 40 39 38 37 35 34 33 33 33 33 32 31 29 26 24 22 21 19 19 18 18 17 16 16 15 15 14 14 14 14 13 13 14 15 17 20 21 23 23 24
2 4 4 1 3 2 1 2 2 5 10 4 10 13 11 14 9 2 4 6 10 11 10 12 14 12 10 10 10 7 8 8 8 8 8 9 9 11 14 17 23 26 30 32 33 34 35 36 37 37 39 40 40 40 41 41 41 41 40 39 38 37 36 36 35 34 34 33 32 30 29 27 25 23 22 21 20 19 18 17 16 16 15 14 14 13 13 14 14 16 18 20 22 22 23 23 24
7 6 6 5 3 3 4 4 3 6 9 5 6 8 6 9 6 9 11 9 10 11 11 11 11 10 10 9 8 7 8 8 8 8 8 9 10 10 12 17 21 25 29 31 32 34 34 35 37 38 39 40 40 40 40 41 42 42 41 40 38 37 37 37 36 34 34 34 33 32 30 29 28 26 25 23 21 19 18 17 16 16 15 14 15 15 15 16 16 17 19 21 22 22 22 23 24
9 6 5 5 4 3 4 5 6 6 6 4 3 4 4 2 3 12 17 14 12 11 11 11 9 9 8 5 7 7 7 7 7 8 9 9 10 10 12 17 21 24 27 30 32 34 34 35 38 40 39 39 40 40 40 42 43 42 41 40 39 38 38 37 36 35 34 34 33 32 30 29 27 26 24 22 20 19 18 18 17 17 17 16 17 17 17 16 16 17 18 20 21 22 22 23 24
5 5 4 5 4 5 5 6 7 3 4 6 4 4 6 3 5 9 12 13 14 12 12 11 8 9 7 5 7 6 7 7 7 8 9 10 9 10 13 17 20 23 26 30 32 34 36 37 38 40 39 39 40 41 42 42 41 40 41 40 39 38 38 37 36 35 35 34 34 33 31 29 27 25 24 22 21 21 20 19 19 19 18 17 17 17 16 15 15 16 18 20 22 22 22 23 24
3 4 5 5 3 5 5 6 6 2 5 9 6 6 8 6 10 12 11 12 11 11 12 11 9 12 10 6 7 7 7 8 8 9 9 10 10 11 14 18 21 24 27 31 35 38 40 40 39 39 38 37 40 42 42 41 40 40 40 40 39 39 39 38 37 36 35 34 33 32 31 29 28 26 25 24 23 22 21 20 20 19 18 17 17 16 15 15 15 17 19 21 22 22 23 24 23
5 3 5 2 3 1 3 2 3 3 7 9 8 10 10 8 8 6 11 14 13 12 13 12 13 15 11 7 8 8 8 8 8 9 9 10 10 11 14 20 24 28 31 34 37 39 39 39 39 39 39 40 43 43 41 40 40 40 40 40 40 40 39 39 37 37 36 35 34 33 32 30 29 27 26 24 23 22 21 20 19 18 17 17 16 15 15 15 15 18 19 21 22 22 23 23 23
5 3 2 2 1 1 3 3 2 5 7 8 11 14 13 12 11 5 6 14 15 14 14 14 16 15 10 8 9 9 8 8 7 8 8 9 10 11 14 19 24 28 31 32 34 34 35 36 37 38 40 42 41 40 40 40 41 40 40 40 40 40 39 38 38 37 37 37 36 34 33 31 29 27 26 24 23 22 21 20 19 18 17 17 16 15 15 15 16 18 20 21 22 21 22 24 23
1 2 4 1 2 3 4 4 3 5 7 8 12 16 12 9 9 8 9 13 14 14 13 14 15 14 10 8 9 8 7 8 8 8 9 10 11 12 16 21 25 28 30 30 30 32 35 35 35 36 38 38 38 39 40 40 40 40 38 38 39 39 39 38 38 38 38 37 37 35 34 32 30 28 26 24 23 22 21 19 18 18 17 17 16 15 15 16 17 19 20 21 22 21 22 24 24
4 1 3 3 2 1 1 3 3 5 6 5 7 13 11 3 1 6 9 10 11 11 11 11 12 13 11 9 8 7 7 8 8 8 9 10 10 11 17 23 25 26 26 28 30 32 34 34 35 37 37 36 38 40 40 40 40 39 38 39 39 40 39 38 38 38 38 37 36 35 34 32 30 28 26 24 23 21 20 19 18 18 17 17 17 17 17 17 19 20 21 22 22 22 23 24 24
8 8 9 9 7 4 3 6 6 4 4 6 5 12 15 3 5 4 7 9 10 11 11 10 11 12 10 7 8 8 7 8 8 9 9 9 10 10 14 20 22 22 25 28 30 31 31 34 36 37 36 37 39 40 41 41 39 39 39 39 39 39 39 38 38 37 37 37 36 35 33 31 29 28 26 24 23 21 20 19 18 18 18 18 17 17 18 18 20 21 21 22 22 22 23 23 23
Wind_Direction
46 8 1 349 319 313 294 238 278 247 218 255 260 251 158 79 100 124 122 108 156 73 64 95 56 28 81 35 14 85 51 23 24 158 179 154 152 159 141 120 116 113 108 105 96 70 96 98 87 87 87 90 90 91 92 88 94 100 111 104 85 84 81 84 110 115 112 115 97 87 93 97 91 87 85 73 57 41 32 35 38 44 46 44 43 38 33 31 32 35 35 25 10 5 12 11 9
57 332 304 303 282 295 299 190 271 259 220 248 254 241 117 90 114 143 146 123 83 70 62 48 51 53 56 2 316 78 59 43 66 91 104 139 146 157 146 127 125 123 112 109 116 118 108 102 95 96 96 100 99 96 95 94 100 107 117 111 93 88 84 78 82 97 105 110 100 95 96 97 91 75 57 36 11 3 357 357 358 2 8 14 18 19 19 15 15 24 32 20 1 357 5 1 1
122 263 278 273 246 231 294 278 262 286 278 269 293 118 125 109 105 75 78 91 87 88 74 49 44 38 4 328 339 14 105 79 91 92 116 148 152 160 156 133 129 135 119 113 126 129 113 109 106 106 103 105 108 108 107 110 124 130 135 131 113 101 94 86 78 75 67 53 8 331 339 353 354 353 357 356 354 347 343 340 340 345 347 352 356 359 2 357 351 350 354 352 340 342 351 349 348
139 131 291 285 242 198 257 224 227 281 282 281 2 82 106 89 96 74 67 76 88 104 91 74 73 19 331 278 358 32 119 94 103 111 138 162 165 162 158 133 129 140 120 113 142 144 122 114 113 112 109 114 123 127 128 134 142 142 143 147 144 138 132 129 124 118 101 31 327 329 332 338 340 347 352 353 355 349 344 340 337 339 339 341 343 346 349 348 345 339 334 331 325 327 333 335 336
76 24 289 299 298 188 281 248 245 247 253 281 345 91 25 79 100 89 83 77 73 78 73 117 101 65 79 85 338 42 123 100 107 110 126 144 152 158 152 130 130 132 118 115 147 160 144 131 122 123 120 121 129 132 133 132 131 137 140 144 144 145 148 145 142 139 134 113 349 343 343 347 351 352 356 358 360 357 354 351 348 347 345 345 342 342 342 341 340 336 333 328 325 323 323 324 324
355 304 255 278 288 64 335 261 268 252 250 289 328 70 53 90 105 103 95 76 62 53 42 105 94 55 100 89 45 66 131 130 116 112 133 142 152 159 144 129 133 131 127 138 155 158 150 147 142 142 140 137 139 139 141 138 134 135 133 138 140 139 138 134 130 119 106 82 40 20 13 9 10 7 9 10 10 8 4 1 0 359 357 355 352 349 346 344 340 335 332 328 326 324 323 321 319
304 287 216 229 261 122 275 259 264 268 279 319 353 34 59 98 113 116 120 104 76 73 22 52 101 51 215 126 72 79 108 123 131 143 155 158 159 155 140 133 140 135 135 161 177 168 153 156 159 155 150 146 145 148 148 146 144 142 138 137 136 135 132 123 117 107 94 82 63 49 40 31 25 21 18 17 15 12 7 2 1 360 359 355 353 351 350 347 343 339 337 334 331 330 328 327 324
274 278 143 205 267 169 232 256 254 264 268 60 65 26 56 113 133 130 152 175 140 153 168 153 114 93 235 144 243 139 122 111 137 150 156 161 160 150 141 143 144 140 145 171 189 181 166 162 160 156 149 144 141 143 142 142 143 142 140 137 134 130 125 117 110 103 93 82 70 58 49 44 37 31 27 23 20 16 11 7 4 2 0 356 354 352 351 348 344 341 339 338 336 335 333 331 329
230 219 47 48 265 235 235 243 246 251 234 126 99 67 70 127 148 142 166 163 132 170 165 165 149 142 170 155 227 159 143 130 136 143 154 161 158 148 141 151 152 150 157 174 189 181 172 161 155 152 144 142 139 139 138 138 140 139 137 133 132 123 115 108 100 93 85 77 70 62 54 51 46 41 38 34 29 24 20 15 12 11 8 4 1 358 357 355 352 348 345 344 342 340 338 335 333
207 207 320 347 252 266 261 245 244 239 185 80 97 135 138 141 164 158 175 162 140 170 156 154 170 188 200 159 158 182 162 152 144 143 156 162 156 149 145 161 166 160 162 173 187 180 174 165 157 152 147 145 143 145 145 144 144 140 139 132 125 115 107 99 95 90 84 80 75 71 65 61 56 52 47 43 38 32 28 23 20 16 14 10 7 4 0 358 356 354 352 351 350 349 346 343 341
215 197 179 285 255 251 257 258 279 290 118 120 115 130 143 153 177 171 183 173 147 148 133 139 185 216 228 202 148 129 152 157 155 151 158 163 157 155 154 163 169 168 169 173 186 183 176 172 164 160 158 158 157 158 157 157 157 147 144 134 121 112 106 102 98 93 90 86 81 77 72 69 64 60 54 49 45 39 35 29 25 20 17 12 9 5 1 358 355 353 351 350 350 350 349 347 346
255 214 157 233 255 251 270 292 311 334 62 183 152 135 142 162 187 193 188 183 151 146 146 163 183 207 213 237 207 135 149 163 164 158 159 161 158 160 165 164 165 174 179 174 180 181 178 179 180 179 176 180 181 180 180 174 167 157 146 133 124 119 114 110 105 102 97 92 88 84 80 76 72 68 63 59 53 49 43 37 33 27 23 18 15 10 4 1 356 353 350 349 347 346 346 344 344
248 268 201 240 257 266 286 302 309 320 323 311 126 129 138 170 199 211 194 188 165 165 178 183 170 50 209 231 126 154 162 172 165 161 161 160 158 160 170 171 169 180 181 172 174 177 179 188 190 190 190 196 200 198 197 186 174 161 145 134 129 126 122 120 115 112 107 104 102 97 94 89 85 80 76 73 68 64 57 50 47 42 36 31 27 21 17 13 8 5 360 357 355 352 349 347 346
265 295 318 272 282 280 284 281 287 301 296 52 78 116 149 190 206 221 227 211 178 177 177 175 156 99 233 203 169 193 174 171 165 164 159 158 162 159 168 174 175 182 178 175 180 175 175 192 191 189 195 196 198 197 190 182 172 159 148 142 137 135 131 128 123 120 116 113 110 107 107 102 96 88 81 77 70 66 59 51 49 45 40 35 31 27 24 21 18 15 12 11 9 6 3 359 356
280 315 318 274 287 282 278 261 269 292 297 93 98 142 164 299 16 249 256 224 198 324 102 151 155 128 235 216 207 177 162 166 163 162 158 159 165 161 170 177 181 184 177 178 185 177 177 193 190 188 195 193 195 190 181 175 166 159 155 151 145 141 135 130 126 122 117 113 112 110 103 92 83 76 71 67 62 58 53 46 44 43 38 35 31 28 26 24 22 18 17 16 15 15 13 11 10
249 328 279 256 274 274 257 239 259 280 285 111 185 162 156 187 41 269 253 84 227 268 84 153 185 173 333 224 169 139 152 161 160 158 157 158 164 166 176 181 186 190 181 181 189 184 186 197 194 193 192 192 198 187 178 174 165 163 157 154 149 143 138 131 125 119 112 107 103 92 83 76 68 64 60 58 57 53 50 45 42 42 38 36 32 30 29 26 23 21 20 17 17 17 16 16 14
130 318 237 255 255 262 263 240 219 261 286 113 192 172 175 210 108 149 141 250 251 164 207 209 196 215 50 108 131 139 148 156 156 157 158 159 162 168 179 183 186 194 190 188 192 190 192 199 198 196 192 194 201 189 180 177 169 167 160 156 149 143 139 130 124 116 110 105 92 79 80 79 65 58 53 51 51 48 48 44 40 40 36 34 30 28 28 23 22 21 20 17 16 15 14 14 12
174 198 214 241 242 244 274 335 8 15 328 88 175 184 225 229 158 145 118 234 244 206 219 200 209 203 122 124 135 142 150 155 157 161 163 165 170 174 181 186 187 193 196 194 196 196 196 199 196 197 196 197 201 191 183 179 175 172 163 160 151 147 141 133 128 118 112 104 92 83 84 80 60 51 45 40 39 37 37 34 32 32 30 29 26 26 25 20 20 19 17 17 15 11 10 11 8
207 235 237 242 260 263 256 354 8 10 329 327 191 180 231 234 156 139 172 216 214 224 231 202 219 203 131 137 145 147 153 158 163 169 171 176 181 183 185 188 191 193 198 197 197 201 201 198 195 199 201 199 199 191 186 183 180 176 168 166 160 155 150 143 130 115 106 97 92 87 78 68 54 43 36 31 29 27 25 24 24 23 23 23 22 23 22 17 18 17 15 14 12 9 9 8 5
216 224 256 252 282 318 316 7 22 23 3 317 291 177 204 245 151 122 214 237 219 222 223 200 220 218 175 159 154 154 160 165 172 177 180 186 189 191 188 188 194 195 199 199 197 200 203 201 197 202 205 201 197 191 188 187 183 180 176 174 172 167 163 154 133 113 103 95 95 90 75 62 50 36 29 26 23 21 19 18 18 17 17 18 17 18 16 15 15 14 11 10 9 8 7 6 3
216 191 234 261 275 325 331 37 41 45 43 315 297 283 221 246 193 154 202 246 245 231 218 206 216 222 192 166 164 165 167 173 179 185 188 191 194 197 196 195 197 197 198 197 198 199 200 203 198 202 207 200 196 192 189 189 185 184 183 182 182 178 173 162 142 127 116 105 103 96 76 58 43 32 25 20 16 15 14 12 13 13 14 14 14 13 12 12 12 10 8 6 6 6 5 4 3
259 231 243 263 267 281 348 71 53 57 67 290 281 270 245 232 208 196 204 227 241 224 211 217 215 220 195 168 171 171 173 180 184 190 194 195 197 199 200 198 196 196 196 195 198 198 198 202 200 203 207 198 196 195 192 193 190 191 191 188 189 185 179 171 161 153 142 129 120 102 80 60 38 26 19 12 9 7 7 8 8 9 10 10 11 11 8 8 9 6 3 2 3 3 3 3 2
241 252 250 263 266 270 262 108 94 85 196 234 250 282 274 239 239 218 215 230 238 225 169 205 206 231 201 168 168 175 182 187 189 194 196 197 198 199 199 196 193 192 194 195 196 197 196 199 201 204 205 198 197 195 194 198 193 195 197 192 193 190 184 180 178 174 166 159 141 116 96 77 41 22 12 4 2 0 1 2 3 4 6 6 6 7 4 4 5 2 1 359 359 360 0 1 359
228 261 267 278 282 268 266 127 147 181 228 241 273 347 283 238 244 233 232 236 240 247 245 165 128 1 150 159 171 182 188 191 195 199 199 201 201 200 199 196 194 192 191 193 194 195 195 198 201 203 204 200 197 195 198 199 193 198 200 194 195 193 189 189 188 185 183 177 164 148 133 118 53 11 3 2 357 355 358 359 1 1 2 1 0 2 359 360 0 358 359 357 356 357 357 358 356
222 249 258 268 273 257 254 165 172 201 226 244 260 273 250 240 260 266 252 247 239 239 240 211 181 156 134 159 181 187 192 197 200 201 202 206 205 203 201 198 194 191 191 191 192 194 195 197 200 202 203 200 197 197 200 198 195 202 201 194 197 195 193 195 192 193 192 183 177 177 170 166 204 343 353 354 355 354 356 357 358 358 358 355 354 356 356 356 355 355 357 356 355 354 354 356 353
219 254 275 286 286 274 253 209 196 210 217 207 228 248 247 242 266 268 254 248 245 236 234 224 195 196 185 175 186 190 196 201 200 201 203 206 205 202 201 199 196 193 193 191 191 194 194 196 199 200 201 200 198 198 198 196 200 204 198 197 200 195 196 198 192 196 198 190 184 188 189 189 215 265 323 336 350 350 350 353 352 351 352 348 348 352 353 352 351 354 357 355 352 351 352 352 349
302 297 309 300 290 285 265 245 221 211 213 192 210 245 251 223 167 257 254 238 236 230 232 228 200 210 211 198 195 194 200 205 202 200 200 201 202 202 200 199 199 196 193 191 192 194 193 194 196 198 199 200 200 197 195 197 204 204 198 201 200 195 199 197 192 197 200 196 190 191 195 197 214 231 269 310 332 336 342 345 344 345 344 343 347 350 349 350 352 355 355 349 347 346 344 344 344
328 334 316 286 275 270 251 245 235 213 216 200 205 256 262 195 171 247 249 209 212 214 223 225 213 217 212 212 210 199 207 208 203 198 197 199 201 202 199 200 200 197 194 193 193 193 192 193 194 195 198 199 198 196 194 198 204 202 200 202 199 198 200 193 193 198 200 199 196 196 197 203 218 226 239 274 306 321 332 337 338 341 338 341 347 347 347 351 352 353 348 341 340 339 335 337 336
308 356 306 279 273 266 248 238 224 201 203 180 168 284 262 217 219 247 246 219 210 211 219 220 217 220 209 216 217 210 215 205 201 202 203 205 204 202 201 202 200 196 196 194 192 193 193 194 193 193 196 197 197 195 195 198 202 201 201 201 200 200 196 193 196 198 201 200 198 202 200 204 220 227 238 262 291 312 326 331 335 337 335 340 346 345 345 348 350 350 339 332 335 336 332 331 326
271 251 249 276 286 267 248 233 205 187 181 150 142 276 262 225 218 241 250 215 200 216 225 220 218 222 212 214 218 219 216 203 204 209 208 207 206 203 203 204 201 198 196 192 193 195 194 193 192 191 194 197 196 195 196 197 199 201 200 199 202 201 194 195 197 199 205 202 199 204 204 206 219 228 242 259 280 304 320 328 334 335 332 337 342 342 343 345 347 344 329 326 334 336 331 326 322
257 264 245 250 275 270 263 232 180 175 171 150 153 242 263 259 224 233 245 203 187 211 220 221 221 225 223 215 218 221 215 209 212 213 210 207 206 204 203 203 201 199 195 192 194 195 193 193 191 191 194 197 194 194 197 196 198 200 197 198 203 200 195 197 199 201 205 205 203 204 206 210 218 227 239 253 269 293 312 323 330 329 328 333 336 338 340 342 344 332 321 329 335 331 326 323 321
217 247 259 229 227 262 280 229 170 173 174 166 164 218 255 269 256 241 237 186 180 209 216 218 223 227 230 223 219 224 222 216 216 215 211 207 206 204 202 201 198 198 196 194 194 192 193 193 192 192 194 196 193 194 197 196 198 199 196 200 203 197 196 198 201 204 203 207 209 206 208 212 219 229 235 248 264 283 301 313 318 320 322 326 329 334 338 339 335 322 322 333 330 323 322 322 321
213 199 243 240 236 262 268 248 185 170 128 185 200 220 249 256 256 340 158 171 177 209 222 220 222 227 231 228 221 223 226 222 218 217 211 206 206 205 202 199 198 198 197 195 192 191 193 192 193 193 194 196 193 192 194 194 197 197 195 201 202 196 196 198 201 204 202 206 212 212 212 212 222 232 236 246 258 273 289 300 307 313 316 319 325 331 334 334 332 327 327 327 320 319 320 320 322
238 211 236 241 238 257 255 282 236 181 142 195 214 233 252 252 247 261 152 183 189 211 228 234 232 234 237 233 224 222 223 223 220 212 207 204 205 206 203 199 198 197 196 196 194 193 193 192 193 194 194 194 192 190 191 193 194 194 194 199 200 196 196 199 202 204 203 206 211 216 219 216 222 231 235 243 252 263 275 285 296 304 309 315 321 324 328 329 333 330 319 314 316 318 318 319 322
247 240 256 262 246 250 255 276 212 187 187 210 212 231 248 256 261 261 246 220 214 222 231 245 247 247 246 241 233 228 221 225 222 205 204 204 203 204 201 198 197 196 195 195 194 193 193 192 192 193 193 191 190 190 190 190 190 190 191 195 198 197 196 199 203 206 206 208 211 216 222 221 224 230 233 240 248 257 267 277 287 298 305 310 314 318 323 325 328 320 309 313 320 321 319 321 323
259 266 270 272 272 266 262 275 186 180 199 218 217 230 243 251 255 257 255 237 230 235 238 244 248 250 250 243 239 233 227 230 217 199 200 201 201 200 197 195 194 194 193 192 192 192 192 191 190 191 191 190 189 188 188 187 185 187 190 192 196 197 198 199 203 208 207 209 213 218 221 221 226 231 232 238 245 250 259 269 278 290 297 303 308 315 320 322 321 313 311 317 321 324 325 325 325
256 266 269 266 272 273 268 275 209 183 198 219 221 232 243 251 253 252 257 254 247 246 246 248 249 250 251 244 240 236 234 229 196 191 195 196 199 197 193 191 189 189 189 189 190 191 192 191 189 190 190 190 189 188 188 188 187 187 189 194 197 198 200 200 202 207 208 209 214 219 220 220 225 231 233 237 243 248 253 262 272 283 291 298 306 311 314 314 313 313 316 318 318 320 320 321 326
251 255 266 269 263 266 272 278 202 185 204 233 237 245 250 255 261 259 256 256 255 252 251 254 253 255 257 249 243 239 232 200 169 181 186 190 193 191 188 187 185 185 186 189 190 191 193 193 192 191 190 190 192 193 192 192 194 194 195 198 200 200 201 203 205 207 208 209 214 220 221 219 223 228 233 236 241 246 251 260 270 279 287 294 300 303 305 307 311 315 315 311 309 306 305 313 326
263 267 270 272 268 273 279 278 180 182 196 241 251 257 259 259 262 260 254 250 251 251 250 252 253 258 261 254 248 239 214 171 169 175 176 184 186 184 184 184 186 188 187 190 192 192 193 193 193 192 192 193 194 196 196 196 198 200 201 202 201 201 204 206 209 209 208 208 213 220 221 219 222 226 231 235 239 244 250 259 268 274 281 287 292 295 298 302 306 307 303 299 299 297 297 307 318
251 253 260 265 259 263 277 246 201 205 211 241 266 268 262 262 263 259 252 249 248 251 252 253 252 254 256 255 251 230 200 179 177 178 174 178 178 180 183 184 187 188 188 191 192 192 192 193 194 193 195 196 196 198 199 199 199 199 203 204 201 202 204 204 206 209 210 209 212 217 220 220 222 226 230 234 238 243 249 254 262 268 273 279 283 287 290 293 296 297 295 288 287 291 293 300 305
240 226 232 252 251 246 253 245 210 220 231 238 293 288 262 240 248 254 252 247 244 245 248 253 253 250 253 257 252 222 193 181 178 181 179 175 178 183 186 186 187 188 191 193 193 193 193 194 195 195 197 198 198 199 198 197 196 193 192 191 190 190 191 192 193 197 203 207 210 214 218 220 221 225 230 234 237 242 247 251 257 262 267 272 274 277 280 284 287 286 284 282 282 284 285 291 295
259 215 216 238 250 252 259 275 321 309 269 209 168 286 270 207 222 247 250 225 230 234 235 244 251 252 252 253 244 216 191 181 179 181 181 180 181 184 186 188 189 192 195 196 195 195 194 195 196 197 198 199 199 199 198 196 193 190 187 183 182 181 181 189 194 196 199 204 210 212 216 218 219 222 227 233 237 240 246 250 254 258 263 266 267 270 272 274 279 279 281 282 280 280 280 283 285
272 227 218 240 253 259 261 276 294 263 267 230 144 280 285 253 230 247 243 204 217 226 225 234 245 252 252 248 229 203 192 184 180 182 180 181 180 180 187 191 193 196 198 197 196 196 196 197 197 198 199 199 199 199 198 197 195 194 193 192 191 189 189 196 201 203 205 208 210 211 213 216 219 221 224 228 233 237 242 247 251 256 259 262 263 264 266 268 273 278 281 278 276 277 275 274 278
267 263 283 259 261 261 251 251 236 237 288 272 165 150 278 279 252 219 214 202 218 229 224 234 242 246 255 257 230 192 192 187 178 181 181 183 184 184 190 194 196 198 197 195 195 196 198 198 198 199 199 200 200 200 199 199 198 197 198 199 198 199 200 201 203 205 208 210 210 210 212 215 217 220 222 225 228 234 239 242 246 252 254 258 261 261 265 269 273 276 275 272 272 274 272 271 275
247 57 54 75 75 320 88 206 242 287 317 273 184 152 242 276 262 185 190 194 211 224 220 230 240 239 247 257 239 190 192 187 178 183 184 185 187 188 191 194 197 198 196 196 196 197 199 199 199 199 200 201 201 201 201 201 202 201 201 202 202 205 205 204 205 204 204 206 205 205 207 209 213 217 221 224 227 231 236 240 243 248 252 255 259 262 265 267 270 272 271 270 272 272 272 271 271
220 124 77 76 84 37 78 213 247 347 284 252 191 161 213 274 268 189 185 202 209 220 221 226 236 239 242 248 231 190 189 186 181 188 186 184 187 188 190 191 193 196 196 197 197 197 198 198 198 199 200 202 201 202 203 203 204 204 204 204 204 205 202 200 201 198 196 196 196 197 200 204 209 213 218 223 227 231 233 238 241 244 249 253 256 260 263 265 267 270 271 273 274 274 273 270 268
180 134 74 51 223 49 79 221 105 44 269 250 193 181 196 269 276 168 181 202 196 205 219 222 233 244 246 241 219 190 186 185 180 184 181 174 177 179 182 184 187 193 195 196 197 197 198 198 199 200 201 202 202 203 204 204 205 206 207 207 206 204 199 194 192 189 189 189 190 193 197 201 206 211 217 222 227 231 232 236 240 243 247 249 254 258 261 265 268 271 274 274 274 273 272 270 269
112 115 93 350 297 19 37 281 107 197 264 250 180 184 192 232 266 128 192 198 186 195 203 206 220 236 241 234 219 194 178 177 169 170 170 158 162 171 176 180 183 187 190 193 196 196 197 199 200 201 202 202 203 204 205 205 206 207 208 209 208 205 200 195 192 189 189 190 191 194 197 200 203 208 215 220 224 228 231 234 238 241 243 246 252 257 260 265 267 270 271 271 271 271 269 269 268
144 135 125 107 285 315 326 246 163 218 258 244 174 180 200 236 248 237 239 205 188 202 202 201 210 221 232 227 215 189 163 167 163 164 168 163 167 171 175 179 180 184 189 192 195 195 197 198 200 202 203 203 204 204 205 205 206 208 208 209 208 206 202 199 196 193 193 194 194 195 196 198 200 203 209 214 220 225 230 234 237 240 243 247 253 255 256 258 260 263 265 267 269 269 269 268 268
176 161 149 166 209 251 248 243 235 239 259 261 180 175 219 265 246 206 224 220 195 201 209 210 204 209 227 220 194 164 151 159 162 166 170 172 177 177 180 183 182 186 191 191 193 195 197 198 200 204 206 204 204 204 205 206 208 209 209 209 208 206 203 202 200 197 196 197 197 198 199 201 202 203 208 213 218 224 230 234 237 239 243 247 250 250 250 253 257 262 266 268 269 271 271 270 269
193 175 157 188 195 217 240 237 243 259 278 271 180 170 213 259 185 192 207 218 205 196 208 215 209 218 229 187 149 147 153 161 163 169 175 180 182 180 184 186 186 189 191 191 194 195 197 200 201 205 206 204 203 205 205 207 208 209 209 209 208 206 205 204 203 202 200 199 200 201 201 203 204 205 209 213 217 221 225 228 232 237 241 245 248 249 252 258 264 268 270 270 271 274 273 270 271
215 152 153 228 204 196 244 261 249 267 310 270 215 217 235 244 259 223 209 220 216 205 211 209 211 231 222 159 156 169 166 170 170 172 180 184 184 183 187 190 191 191 191 192 195 196 199 202 203 206 207 205 204 205 206 208 208 208 209 209 207 206 205 204 203 202 202 202 202 203 202 203 203 204 206 209 212 216 220 224 230 235 241 246 249 253 259 267 271 271 271 271 272 275 273 270 273
196 142 190 230 163 165 221 276 276 268 279 270 243 248 271 297 278 239 208 218 218 209 214 205 207 229 222 188 189 192 181 181 179 180 184 183 184 189 192 192 192 192 194 196 198 199 201 202 202 205 207 206 206 207 208 208 207 208 208 208 206 205 204 203 201 200 200 201 202 203 203 202 203 204 205 207 211 215 220 225 231 238 244 250 254 259 266 270 271 270 269 270 272 274 272 272 275
132 178 221 244 33 106 175 255 306 272 262 272 264 263 276 287 280 233 189 206 211 207 209 202 208 225 225 211 211 208 192 184 180 184 188 187 187 192 193 196 197 197 198 201 202 203 204 204 204 203 204 207 207 207 207 207 207 207 207 206 206 205 204 203 201 200 199 199 199 201 202 202 203 205 206 209 213 217 223 229 236 243 248 253 258 263 267 267 267 267 268 269 273 274 273 274 275
141 215 271 93 107 226 170 174 231 246 256 275 278 278 273 256 264 277 207 203 204 206 204 199 209 221 225 220 223 216 191 178 182 188 190 192 194 196 195 198 202 203 204 206 205 204 206 208 207 205 206 208 208 206 206 207 207 207 206 206 205 204 203 202 201 200 199 199 200 200 201 203 204 206 209 212 217 222 227 233 239 246 250 254 259 262 264 265 264 265 267 270 272 272 271 272 274
110 342 339 92 167 181 180 189 193 218 247 274 284 286 278 251 251 249 216 197 194 199 199 199 208 218 221 219 221 212 184 182 195 196 197 199 198 199 198 200 203 205 207 207 204 205 208 209 208 208 209 209 208 207 206 206 207 206 205 204 204 203 202 201 200 200 200 200 201 201 202 203 204 208 211 215 220 224 229 234 239 245 250 254 258 261 262 263 263 264 266 268 270 270 268 270 273
195 231 252 216 187 156 221 252 215 204 229 247 273 279 273 263 218 212 191 184 191 190 193 204 211 218 219 213 212 205 192 197 201 200 204 205 203 201 202 205 206 206 206 205 205 207 208 207 207 209 209 207 207 207 205 205 205 204 204 203 202 201 200 200 199 199 200 200 201 201 203 204 205 208 212 216 220 225 229 234 238 244 249 253 256 259 261 262 261 263 265 267 268 268 268 271 275
193 201 211 207 197 185 227 249 227 200 223 227 237 266 268 268 87 135 162 174 189 184 191 209 218 225 225 211 208 205 204 210 209 206 207 204 204 204 204 204 202 202 204 205 205 206 206 207 208 209 207 206 207 206 205 204 202 202 203 202 200 199 198 197 197 198 199 199 199 201 202 203 204 207 211 215 219 224 228 233 237 243 246 250 254 257 260 261 260 262 266 267 268 268 269 272 276